Year,Month,Day,Hour,Minute,Value (Times are PST for temperature in C)
2021,06,29,00,00,26.70
2021,06,29,00,01,26.70
2021,06,29,00,02,26.70
2021,06,29,00,03,26.70
2021,06,29,00,04,26.70
2021,06,29,00,05,26.70
2021,06,29,00,06,26.70
2021,06,29,00,07,26.70
2021,06,29,00,08,26.70
2021,06,29,00,09,26.70
2021,06,29,00,10,26.70
2021,06,29,00,11,26.60
2021,06,29,00,12,26.60
2021,06,29,00,13,26.60
2021,06,29,00,14,26.60
2021,06,29,00,15,26.60
2021,06,29,00,16,26.60
2021,06,29,00,17,26.60
2021,06,29,00,18,26.60
2021,06,29,00,19,26.60
2021,06,29,00,20,26.60
2021,06,29,00,21,26.50
2021,06,29,00,22,26.50
2021,06,29,00,23,26.40
2021,06,29,00,24,26.40
2021,06,29,00,25,26.30
2021,06,29,00,26,26.30
2021,06,29,00,27,26.20
2021,06,29,00,28,26.20
2021,06,29,00,29,26.20
2021,06,29,00,30,26.10
2021,06,29,00,31,26.10
2021,06,29,00,32,26.10
2021,06,29,00,33,26.00
2021,06,29,00,34,26.00
2021,06,29,00,35,26.00
2021,06,29,00,36,26.00
2021,06,29,00,37,25.90
2021,06,29,00,38,25.90
2021,06,29,00,39,25.90
2021,06,29,00,40,25.90
2021,06,29,00,41,25.90
2021,06,29,00,42,25.90
2021,06,29,00,43,25.90
2021,06,29,00,44,25.90
2021,06,29,00,45,25.90
2021,06,29,00,46,25.80
2021,06,29,00,47,25.80
2021,06,29,00,48,25.80
2021,06,29,00,49,25.80
2021,06,29,00,50,25.80
2021,06,29,00,51,25.80
2021,06,29,00,52,25.70
2021,06,29,00,53,25.70
2021,06,29,00,54,25.70
2021,06,29,00,55,25.70
2021,06,29,00,56,25.70
2021,06,29,00,57,25.60
2021,06,29,00,58,25.60
2021,06,29,00,59,25.60
2021,06,29,01,00,25.50
2021,06,29,01,01,25.50
2021,06,29,01,02,25.50
2021,06,29,01,03,25.50
2021,06,29,01,04,25.50
2021,06,29,01,05,25.40
2021,06,29,01,06,25.40
2021,06,29,01,07,25.40
2021,06,29,01,08,25.40
2021,06,29,01,09,25.40
2021,06,29,01,10,25.40
2021,06,29,01,11,25.40
2021,06,29,01,12,25.30
2021,06,29,01,13,25.30
2021,06,29,01,14,25.30
2021,06,29,01,15,25.30
2021,06,29,01,16,25.30
2021,06,29,01,17,25.30
2021,06,29,01,18,25.30
2021,06,29,01,19,25.30
2021,06,29,01,20,25.30
2021,06,29,01,21,25.30
2021,06,29,01,22,25.30
2021,06,29,01,23,25.30
2021,06,29,01,24,25.30
2021,06,29,01,25,25.30
2021,06,29,01,26,25.30
2021,06,29,01,27,25.30
2021,06,29,01,28,25.20
2021,06,29,01,29,25.20
2021,06,29,01,30,25.20
2021,06,29,01,31,25.20
2021,06,29,01,32,25.10
2021,06,29,01,33,25.10
2021,06,29,01,34,25.10
2021,06,29,01,35,25.10
2021,06,29,01,36,25.10
2021,06,29,01,37,25.10
2021,06,29,01,38,25.00
2021,06,29,01,39,25.10
2021,06,29,01,40,25.00
2021,06,29,01,41,25.00
2021,06,29,01,42,25.00
2021,06,29,01,43,25.00
2021,06,29,01,44,25.00
2021,06,29,01,45,25.00
2021,06,29,01,46,24.90
2021,06,29,01,47,24.90
2021,06,29,01,48,24.90
2021,06,29,01,49,24.90
2021,06,29,01,50,24.80
2021,06,29,01,51,24.80
2021,06,29,01,52,24.80
2021,06,29,01,53,24.80
2021,06,29,01,54,24.80
2021,06,29,01,55,24.80
2021,06,29,01,56,24.80
2021,06,29,01,57,24.80
2021,06,29,01,58,24.80
2021,06,29,01,59,24.80
2021,06,29,02,00,24.80
2021,06,29,02,01,24.70
2021,06,29,02,02,24.70
2021,06,29,02,03,24.70
2021,06,29,02,04,24.70
2021,06,29,02,05,24.70
2021,06,29,02,06,24.70
2021,06,29,02,07,24.70
2021,06,29,02,08,24.70
2021,06,29,02,09,24.70
2021,06,29,02,10,24.70
2021,06,29,02,11,24.60
2021,06,29,02,12,24.60
2021,06,29,02,13,24.60
2021,06,29,02,14,24.60
2021,06,29,02,15,24.60
2021,06,29,02,16,24.50
2021,06,29,02,17,24.50
2021,06,29,02,18,24.50
2021,06,29,02,19,24.40
2021,06,29,02,20,24.40
2021,06,29,02,21,24.40
2021,06,29,02,22,24.40
2021,06,29,02,23,24.30
2021,06,29,02,24,24.30
2021,06,29,02,25,24.20
2021,06,29,02,26,24.20
2021,06,29,02,27,24.10
2021,06,29,02,28,24.10
2021,06,29,02,29,24.10
2021,06,29,02,30,24.10
2021,06,29,02,31,24.10
2021,06,29,02,32,24.10
2021,06,29,02,33,24.10
2021,06,29,02,34,24.10
2021,06,29,02,35,24.00
2021,06,29,02,36,24.00
2021,06,29,02,37,23.90
2021,06,29,02,38,23.90
2021,06,29,02,39,23.80
2021,06,29,02,40,23.80
2021,06,29,02,41,23.80
2021,06,29,02,42,23.70
2021,06,29,02,43,23.70
2021,06,29,02,44,23.70
2021,06,29,02,45,23.70
2021,06,29,02,46,23.60
2021,06,29,02,47,23.60
2021,06,29,02,48,23.60
2021,06,29,02,49,23.60
2021,06,29,02,50,23.50
2021,06,29,02,51,23.50
2021,06,29,02,52,23.50
2021,06,29,02,53,23.40
2021,06,29,02,54,23.40
2021,06,29,02,55,23.40
2021,06,29,02,56,23.40
2021,06,29,02,57,23.40
2021,06,29,02,58,23.40
2021,06,29,02,59,23.40
2021,06,29,03,00,23.40
2021,06,29,03,01,23.40
2021,06,29,03,02,23.30
2021,06,29,03,03,23.30
2021,06,29,03,04,23.30
2021,06,29,03,05,23.30
2021,06,29,03,06,23.30
2021,06,29,03,07,23.40
2021,06,29,03,08,23.40
2021,06,29,03,09,23.40
2021,06,29,03,10,23.40
2021,06,29,03,11,23.40
2021,06,29,03,12,23.40
2021,06,29,03,13,23.40
2021,06,29,03,14,23.40
2021,06,29,03,15,23.40
2021,06,29,03,16,23.40
2021,06,29,03,17,23.40
2021,06,29,03,18,23.40
2021,06,29,03,19,23.30
2021,06,29,03,20,23.30
2021,06,29,03,21,23.30
2021,06,29,03,22,23.20
2021,06,29,03,23,23.10
2021,06,29,03,24,23.10
2021,06,29,03,25,23.00
2021,06,29,03,26,22.90
2021,06,29,03,27,22.80
2021,06,29,03,28,22.80
2021,06,29,03,29,22.70
2021,06,29,03,30,22.70
2021,06,29,03,31,22.70
2021,06,29,03,32,22.60
2021,06,29,03,33,22.60
2021,06,29,03,34,22.60
2021,06,29,03,35,22.60
2021,06,29,03,36,22.50
2021,06,29,03,37,22.50
2021,06,29,03,38,22.50
2021,06,29,03,39,22.50
2021,06,29,03,40,22.50
2021,06,29,03,41,22.40
2021,06,29,03,42,22.40
2021,06,29,03,43,22.40
2021,06,29,03,44,22.40
2021,06,29,03,45,22.40
2021,06,29,03,46,22.40
2021,06,29,03,47,22.40
2021,06,29,03,48,22.40
2021,06,29,03,49,22.40
2021,06,29,03,50,22.40
2021,06,29,03,51,22.40
2021,06,29,03,52,22.40
2021,06,29,03,53,22.40
2021,06,29,03,54,22.40
2021,06,29,03,55,22.40
2021,06,29,03,56,22.40
2021,06,29,03,57,22.40
2021,06,29,03,58,22.40
2021,06,29,03,59,22.40
2021,06,29,04,00,22.30
2021,06,29,04,01,22.30
2021,06,29,04,02,22.30
2021,06,29,04,03,22.30
2021,06,29,04,04,22.30
2021,06,29,04,05,22.30
2021,06,29,04,06,22.30
2021,06,29,04,07,22.30
2021,06,29,04,08,22.40
2021,06,29,04,09,22.40
2021,06,29,04,10,22.40
2021,06,29,04,11,22.40
2021,06,29,04,12,22.40
2021,06,29,04,13,22.30
2021,06,29,04,14,22.30
2021,06,29,04,15,22.30
2021,06,29,04,16,22.30
2021,06,29,04,17,22.30
2021,06,29,04,18,22.20
2021,06,29,04,19,22.20
2021,06,29,04,20,22.20
2021,06,29,04,21,22.10
2021,06,29,04,22,22.10
2021,06,29,04,23,22.10
2021,06,29,04,24,22.10
2021,06,29,04,25,22.00
2021,06,29,04,26,22.00
2021,06,29,04,27,22.00
2021,06,29,04,28,22.00
2021,06,29,04,29,21.90
2021,06,29,04,30,21.90
2021,06,29,04,31,21.90
2021,06,29,04,32,21.90
2021,06,29,04,33,21.90
2021,06,29,04,34,21.90
2021,06,29,04,35,21.90
2021,06,29,04,36,21.90
2021,06,29,04,37,21.90
2021,06,29,04,38,21.90
2021,06,29,04,39,21.90
2021,06,29,04,40,21.90
2021,06,29,04,41,21.90
2021,06,29,04,42,21.80
2021,06,29,04,43,21.80
2021,06,29,04,44,21.80
2021,06,29,04,45,21.80
2021,06,29,04,46,21.80
2021,06,29,04,47,21.80
2021,06,29,04,48,21.80
2021,06,29,04,49,21.80
2021,06,29,04,50,21.80
2021,06,29,04,51,21.80
2021,06,29,04,52,21.80
2021,06,29,04,53,21.80
2021,06,29,04,54,21.80
2021,06,29,04,55,21.80
2021,06,29,04,56,21.80
2021,06,29,04,57,21.80
2021,06,29,04,58,21.80
2021,06,29,04,59,21.80
2021,06,29,05,00,21.80
2021,06,29,05,01,21.80
2021,06,29,05,02,21.80
2021,06,29,05,03,21.80
2021,06,29,05,04,21.80
2021,06,29,05,05,21.70
2021,06,29,05,06,21.70
2021,06,29,05,07,21.70
2021,06,29,05,08,21.70
2021,06,29,05,09,21.70
2021,06,29,05,10,21.70
2021,06,29,05,11,21.70
2021,06,29,05,12,21.70
2021,06,29,05,13,21.70
2021,06,29,05,14,21.70
2021,06,29,05,15,21.70
2021,06,29,05,16,21.70
2021,06,29,05,17,21.70
2021,06,29,05,18,21.70
2021,06,29,05,19,21.70
2021,06,29,05,20,21.70
2021,06,29,05,21,21.70
2021,06,29,05,22,21.70
2021,06,29,05,23,21.70
2021,06,29,05,24,21.70
2021,06,29,05,25,21.60
2021,06,29,05,26,21.60
2021,06,29,05,27,21.60
2021,06,29,05,28,21.60
2021,06,29,05,29,21.60
2021,06,29,05,30,21.60
2021,06,29,05,31,21.60
2021,06,29,05,32,21.60
2021,06,29,05,33,21.60
2021,06,29,05,34,21.60
2021,06,29,05,35,21.60
2021,06,29,05,36,21.60
2021,06,29,05,37,21.60
2021,06,29,05,38,21.60
2021,06,29,05,39,21.60
2021,06,29,05,40,21.60
2021,06,29,05,41,21.60
2021,06,29,05,42,21.50
2021,06,29,05,43,21.50
2021,06,29,05,44,21.50
2021,06,29,05,45,21.50
2021,06,29,05,46,21.50
2021,06,29,05,47,21.50
2021,06,29,05,48,21.50
2021,06,29,05,49,21.50
2021,06,29,05,50,21.50
2021,06,29,05,51,21.50
2021,06,29,05,52,21.50
2021,06,29,05,53,21.50
2021,06,29,05,54,21.50
2021,06,29,05,55,21.50
2021,06,29,05,56,21.50
2021,06,29,05,57,21.50
2021,06,29,05,58,21.50
2021,06,29,05,59,21.50
2021,06,29,06,00,21.60
2021,06,29,06,01,21.60
2021,06,29,06,02,21.60
2021,06,29,06,03,21.60
2021,06,29,06,04,21.70
2021,06,29,06,05,21.70
2021,06,29,06,06,21.70
2021,06,29,06,07,21.80
2021,06,29,06,08,21.80
2021,06,29,06,09,21.80
2021,06,29,06,10,21.80
2021,06,29,06,11,21.80
2021,06,29,06,12,21.80
2021,06,29,06,13,21.80
2021,06,29,06,14,21.70
2021,06,29,06,15,21.70
2021,06,29,06,16,21.60
2021,06,29,06,17,21.50
2021,06,29,06,18,21.50
2021,06,29,06,19,21.40
2021,06,29,06,20,21.40
2021,06,29,06,21,21.30
2021,06,29,06,22,21.20
2021,06,29,06,23,21.20
2021,06,29,06,24,21.10
2021,06,29,06,25,21.10
2021,06,29,06,26,21.10
2021,06,29,06,27,21.00
2021,06,29,06,28,21.00
2021,06,29,06,29,20.90
2021,06,29,06,30,20.90
2021,06,29,06,31,20.80
2021,06,29,06,32,20.80
2021,06,29,06,33,20.80
2021,06,29,06,34,20.70
2021,06,29,06,35,20.70
2021,06,29,06,36,20.70
2021,06,29,06,37,20.70
2021,06,29,06,38,20.60
2021,06,29,06,39,20.60
2021,06,29,06,40,20.60
2021,06,29,06,41,20.60
2021,06,29,06,42,20.60
2021,06,29,06,43,20.60
2021,06,29,06,44,20.70
2021,06,29,06,45,20.70
2021,06,29,06,46,20.70
2021,06,29,06,47,20.70
2021,06,29,06,48,20.70
2021,06,29,06,49,20.70
2021,06,29,06,50,20.70
2021,06,29,06,51,20.70
2021,06,29,06,52,20.60
2021,06,29,06,53,20.60
2021,06,29,06,54,20.60
2021,06,29,06,55,20.60
2021,06,29,06,56,20.60
2021,06,29,06,57,20.60
2021,06,29,06,58,20.60
2021,06,29,06,59,20.60
2021,06,29,07,00,20.60
2021,06,29,07,01,20.60
2021,06,29,07,02,20.60
2021,06,29,07,03,20.60
2021,06,29,07,04,20.60
2021,06,29,07,05,20.60
2021,06,29,07,06,20.60
2021,06,29,07,07,20.60
2021,06,29,07,08,20.60
2021,06,29,07,09,20.60
2021,06,29,07,10,20.60
2021,06,29,07,11,20.70
2021,06,29,07,12,20.70
2021,06,29,07,13,20.80
2021,06,29,07,14,20.80
2021,06,29,07,15,20.90
2021,06,29,07,16,20.90
2021,06,29,07,17,20.90
2021,06,29,07,18,21.00
2021,06,29,07,19,21.10
2021,06,29,07,20,21.10
2021,06,29,07,21,21.00
2021,06,29,07,22,21.00
2021,06,29,07,23,21.00
2021,06,29,07,24,21.00
2021,06,29,07,25,21.00
2021,06,29,07,26,21.00
2021,06,29,07,27,21.00
2021,06,29,07,28,20.90
2021,06,29,07,29,20.90
2021,06,29,07,30,20.90
2021,06,29,07,31,20.90
2021,06,29,07,32,20.80
2021,06,29,07,33,20.80
2021,06,29,07,34,20.80
2021,06,29,07,35,20.80
2021,06,29,07,36,20.80
2021,06,29,07,37,20.80
2021,06,29,07,38,20.80
2021,06,29,07,39,20.80
2021,06,29,07,40,20.80
2021,06,29,07,41,20.90
2021,06,29,07,42,20.90
2021,06,29,07,43,20.80
2021,06,29,07,44,20.80
2021,06,29,07,45,20.80
2021,06,29,07,46,20.80
2021,06,29,07,47,20.80
2021,06,29,07,48,20.90
2021,06,29,07,49,20.90
2021,06,29,07,50,20.90
2021,06,29,07,51,21.00
2021,06,29,07,52,21.00
2021,06,29,07,53,21.00
2021,06,29,07,54,21.10
2021,06,29,07,55,21.10
2021,06,29,07,56,21.10
2021,06,29,07,57,21.10
2021,06,29,07,58,21.20
2021,06,29,07,59,21.20
2021,06,29,08,00,21.20
2021,06,29,08,01,21.30
2021,06,29,08,02,21.30
2021,06,29,08,03,21.30
2021,06,29,08,04,21.30
2021,06,29,08,05,21.30
2021,06,29,08,06,21.30
2021,06,29,08,07,21.30
2021,06,29,08,08,21.30
2021,06,29,08,09,21.30
2021,06,29,08,10,21.30
2021,06,29,08,11,21.40
2021,06,29,08,12,21.50
2021,06,29,08,13,21.50
2021,06,29,08,14,21.60
2021,06,29,08,15,21.60
2021,06,29,08,16,21.60
2021,06,29,08,17,21.70
2021,06,29,08,18,21.70
2021,06,29,08,19,21.80
2021,06,29,08,20,21.80
2021,06,29,08,21,21.90
2021,06,29,08,22,22.00
2021,06,29,08,23,22.00
2021,06,29,08,24,22.10
2021,06,29,08,25,22.10
2021,06,29,08,26,22.10
2021,06,29,08,27,22.20
2021,06,29,08,28,22.20
2021,06,29,08,29,22.20
2021,06,29,08,30,22.20
2021,06,29,08,31,22.30
2021,06,29,08,32,22.30
2021,06,29,08,33,22.40
2021,06,29,08,34,22.50
2021,06,29,08,35,22.60
2021,06,29,08,36,22.70
2021,06,29,08,37,22.70
2021,06,29,08,38,22.80
2021,06,29,08,39,22.80
2021,06,29,08,40,22.80
2021,06,29,08,41,22.90
2021,06,29,08,42,22.90
2021,06,29,08,43,22.90
2021,06,29,08,44,23.00
2021,06,29,08,45,23.10
2021,06,29,08,46,23.10
2021,06,29,08,47,23.20
2021,06,29,08,48,23.20
2021,06,29,08,49,23.30
2021,06,29,08,50,23.40
2021,06,29,08,51,23.40
2021,06,29,08,52,23.40
2021,06,29,08,53,23.50
2021,06,29,08,54,23.50
2021,06,29,08,55,23.60
2021,06,29,08,56,23.60
2021,06,29,08,57,23.70
2021,06,29,08,58,23.70
2021,06,29,08,59,23.80
2021,06,29,09,00,23.80
2021,06,29,09,01,23.90
2021,06,29,09,02,23.90
2021,06,29,09,03,24.00
2021,06,29,09,04,24.00
2021,06,29,09,05,24.10
2021,06,29,09,06,24.10
2021,06,29,09,07,24.20
2021,06,29,09,08,24.20
2021,06,29,09,09,24.30
2021,06,29,09,10,24.30
2021,06,29,09,11,24.40
2021,06,29,09,12,24.50
2021,06,29,09,13,24.50
2021,06,29,09,14,24.50
2021,06,29,09,15,24.50
2021,06,29,09,16,24.50
2021,06,29,09,17,24.40
2021,06,29,09,18,24.40
2021,06,29,09,19,24.40
2021,06,29,09,20,24.30
2021,06,29,09,21,24.30
2021,06,29,09,22,24.20
2021,06,29,09,23,24.10
2021,06,29,09,24,24.10
2021,06,29,09,25,24.10
2021,06,29,09,26,24.10
2021,06,29,09,27,24.10
2021,06,29,09,28,24.10
2021,06,29,09,29,24.10
2021,06,29,09,30,24.00
2021,06,29,09,31,24.00
2021,06,29,09,32,24.00
2021,06,29,09,33,24.10
2021,06,29,09,34,24.10
2021,06,29,09,35,24.10
2021,06,29,09,36,24.20
2021,06,29,09,37,24.20
2021,06,29,09,38,24.20
2021,06,29,09,39,24.20
2021,06,29,09,40,24.20
2021,06,29,09,41,24.20
2021,06,29,09,42,24.20
2021,06,29,09,43,24.30
2021,06,29,09,44,24.30
2021,06,29,09,45,24.30
2021,06,29,09,46,24.40
2021,06,29,09,47,24.40
2021,06,29,09,48,24.50
2021,06,29,09,49,24.60
2021,06,29,09,50,24.80
2021,06,29,09,51,24.90
2021,06,29,09,52,25.00
2021,06,29,09,53,25.10
2021,06,29,09,54,25.20
2021,06,29,09,55,25.20
2021,06,29,09,56,25.20
2021,06,29,09,57,25.20
2021,06,29,09,58,25.30
2021,06,29,09,59,25.30
2021,06,29,10,00,25.40
2021,06,29,10,01,25.40
2021,06,29,10,02,25.50
2021,06,29,10,03,25.60
2021,06,29,10,04,25.60
2021,06,29,10,05,25.70
2021,06,29,10,06,25.80
2021,06,29,10,07,25.80
2021,06,29,10,08,25.90
2021,06,29,10,09,25.90
2021,06,29,10,10,25.90
2021,06,29,10,11,25.90
2021,06,29,10,12,25.90
2021,06,29,10,13,25.90
2021,06,29,10,14,25.90
2021,06,29,10,15,26.00
2021,06,29,10,16,26.00
2021,06,29,10,17,26.10
2021,06,29,10,18,26.20
2021,06,29,10,19,26.20
2021,06,29,10,20,26.30
2021,06,29,10,21,26.40
2021,06,29,10,22,26.40
2021,06,29,10,23,26.50
2021,06,29,10,24,26.50
2021,06,29,10,25,26.60
2021,06,29,10,26,26.60
2021,06,29,10,27,26.70
2021,06,29,10,28,26.80
2021,06,29,10,29,26.80
2021,06,29,10,30,26.80
2021,06,29,10,31,26.90
2021,06,29,10,32,26.90
2021,06,29,10,33,26.90
2021,06,29,10,34,27.00
2021,06,29,10,35,27.10
2021,06,29,10,36,27.10
2021,06,29,10,37,27.30
2021,06,29,10,38,27.30
2021,06,29,10,39,27.30
2021,06,29,10,40,27.30
2021,06,29,10,41,27.30
2021,06,29,10,42,27.20
2021,06,29,10,43,27.10
2021,06,29,10,44,27.00
2021,06,29,10,45,26.80
2021,06,29,10,46,26.70
2021,06,29,10,47,26.60
2021,06,29,10,48,26.40
2021,06,29,10,49,26.20
2021,06,29,10,50,26.10
2021,06,29,10,51,26.00
2021,06,29,10,52,25.90
2021,06,29,10,53,25.90
2021,06,29,10,54,26.00
2021,06,29,10,55,26.00
2021,06,29,10,56,26.10
2021,06,29,10,57,26.10
2021,06,29,10,58,26.10
2021,06,29,10,59,26.10
2021,06,29,11,00,26.00
2021,06,29,11,01,25.90
2021,06,29,11,02,25.90
2021,06,29,11,03,25.90
2021,06,29,11,04,25.80
2021,06,29,11,05,25.90
2021,06,29,11,06,25.90
2021,06,29,11,07,25.90
2021,06,29,11,08,25.90
2021,06,29,11,09,25.90
2021,06,29,11,10,25.80
2021,06,29,11,11,25.80
2021,06,29,11,12,25.80
2021,06,29,11,13,25.80
2021,06,29,11,14,25.80
2021,06,29,11,15,25.80
2021,06,29,11,16,25.80
2021,06,29,11,17,25.70
2021,06,29,11,18,25.70
2021,06,29,11,19,25.70
2021,06,29,11,20,25.70
2021,06,29,11,21,25.70
2021,06,29,11,22,25.70
2021,06,29,11,23,25.70
2021,06,29,11,24,25.60
2021,06,29,11,25,25.60
2021,06,29,11,26,25.60
2021,06,29,11,27,25.60
2021,06,29,11,28,25.70
2021,06,29,11,29,25.80
2021,06,29,11,30,25.80
2021,06,29,11,31,25.90
2021,06,29,11,32,25.90
2021,06,29,11,33,26.00
2021,06,29,11,34,26.00
2021,06,29,11,35,26.10
2021,06,29,11,36,26.10
2021,06,29,11,37,26.20
2021,06,29,11,38,26.20
2021,06,29,11,39,26.30
2021,06,29,11,40,26.40
2021,06,29,11,41,26.30
2021,06,29,11,42,26.20
2021,06,29,11,43,26.10
2021,06,29,11,44,25.90
2021,06,29,11,45,25.90
2021,06,29,11,46,25.90
2021,06,29,11,47,25.90
2021,06,29,11,48,25.80
2021,06,29,11,49,25.80
2021,06,29,11,50,25.70
2021,06,29,11,51,25.70
2021,06,29,11,52,25.70
2021,06,29,11,53,25.80
2021,06,29,11,54,25.80
2021,06,29,11,55,25.90
2021,06,29,11,56,26.00
2021,06,29,11,57,26.10
2021,06,29,11,58,26.10
2021,06,29,11,59,26.20
2021,06,29,12,00,26.20
2021,06,29,12,01,26.20
2021,06,29,12,02,26.30
2021,06,29,12,03,26.30
2021,06,29,12,04,26.30
2021,06,29,12,05,26.30
2021,06,29,12,06,26.30
2021,06,29,12,07,26.30
2021,06,29,12,08,26.30
2021,06,29,12,09,26.30
2021,06,29,12,10,26.40
2021,06,29,12,11,26.40
2021,06,29,12,12,26.50
2021,06,29,12,13,26.60
2021,06,29,12,14,26.70
2021,06,29,12,15,26.90
2021,06,29,12,16,27.00
2021,06,29,12,17,27.00
2021,06,29,12,18,27.10
2021,06,29,12,19,27.10
2021,06,29,12,20,27.10
2021,06,29,12,21,27.20
2021,06,29,12,22,27.30
2021,06,29,12,23,27.40
2021,06,29,12,24,27.50
2021,06,29,12,25,27.50
2021,06,29,12,26,27.50
2021,06,29,12,27,27.70
2021,06,29,12,28,27.80
2021,06,29,12,29,27.90
2021,06,29,12,30,28.00
2021,06,29,12,31,28.00
2021,06,29,12,32,28.00
2021,06,29,12,33,28.00
2021,06,29,12,34,27.90
2021,06,29,12,35,27.90
2021,06,29,12,36,27.90
2021,06,29,12,37,27.90
2021,06,29,12,38,27.90
2021,06,29,12,39,27.90
2021,06,29,12,40,27.90
2021,06,29,12,41,27.80
2021,06,29,12,42,27.80
2021,06,29,12,43,27.90
2021,06,29,12,44,28.00
2021,06,29,12,45,28.20
2021,06,29,12,46,28.30
2021,06,29,12,47,28.40
2021,06,29,12,48,28.50
2021,06,29,12,49,28.60
2021,06,29,12,50,28.60
2021,06,29,12,51,28.60
2021,06,29,12,52,28.60
2021,06,29,12,53,28.70
2021,06,29,12,54,28.70
2021,06,29,12,55,28.70
2021,06,29,12,56,28.70
2021,06,29,12,57,28.70
2021,06,29,12,58,28.80
2021,06,29,12,59,28.90
2021,06,29,13,00,29.00
2021,06,29,13,01,29.10
2021,06,29,13,02,29.10
2021,06,29,13,03,29.10
2021,06,29,13,04,29.20
2021,06,29,13,05,29.30
2021,06,29,13,06,29.30
2021,06,29,13,07,29.30
2021,06,29,13,08,29.30
2021,06,29,13,09,29.30
2021,06,29,13,10,29.30
2021,06,29,13,11,29.30
2021,06,29,13,12,29.30
2021,06,29,13,13,29.30
2021,06,29,13,14,29.30
2021,06,29,13,15,29.40
2021,06,29,13,16,29.40
2021,06,29,13,17,29.50
2021,06,29,13,18,29.50
2021,06,29,13,19,29.60
2021,06,29,13,20,29.60
2021,06,29,13,21,29.60
2021,06,29,13,22,29.60
2021,06,29,13,23,29.60
2021,06,29,13,24,29.50
2021,06,29,13,25,29.50
2021,06,29,13,26,29.50
2021,06,29,13,27,29.60
2021,06,29,13,28,29.70
2021,06,29,13,29,29.70
2021,06,29,13,30,29.80
2021,06,29,13,31,29.80
2021,06,29,13,32,29.80
2021,06,29,13,33,29.80
2021,06,29,13,34,29.80
2021,06,29,13,35,29.80
2021,06,29,13,36,29.90
2021,06,29,13,37,29.90
2021,06,29,13,38,29.90
2021,06,29,13,39,29.90
2021,06,29,13,40,29.90
2021,06,29,13,41,29.90
2021,06,29,13,42,29.80
2021,06,29,13,43,29.80
2021,06,29,13,44,29.80
2021,06,29,13,45,29.90
2021,06,29,13,46,29.90
2021,06,29,13,47,29.90
2021,06,29,13,48,30.00
2021,06,29,13,49,30.00
2021,06,29,13,50,30.00
2021,06,29,13,51,29.90
2021,06,29,13,52,29.80
2021,06,29,13,53,29.80
2021,06,29,13,54,29.80
2021,06,29,13,55,29.80
2021,06,29,13,56,29.70
2021,06,29,13,57,29.70
2021,06,29,13,58,29.70
2021,06,29,13,59,29.70
2021,06,29,14,00,29.70
2021,06,29,14,01,29.70
2021,06,29,14,02,29.70
2021,06,29,14,03,29.70
2021,06,29,14,04,29.70
2021,06,29,14,05,29.80
2021,06,29,14,06,29.80
2021,06,29,14,07,29.80
2021,06,29,14,08,29.90
2021,06,29,14,09,29.90
2021,06,29,14,10,29.90
2021,06,29,14,11,30.00
2021,06,29,14,12,30.00
2021,06,29,14,13,30.10
2021,06,29,14,14,30.10
2021,06,29,14,15,30.10
2021,06,29,14,16,30.10
2021,06,29,14,17,30.10
2021,06,29,14,18,30.20
2021,06,29,14,19,30.30
2021,06,29,14,20,30.40
2021,06,29,14,21,30.60
2021,06,29,14,22,30.70
2021,06,29,14,23,30.70
2021,06,29,14,24,30.80
2021,06,29,14,25,30.80
2021,06,29,14,26,30.80
2021,06,29,14,27,30.80
2021,06,29,14,28,30.80
2021,06,29,14,29,30.90
2021,06,29,14,30,31.00
2021,06,29,14,31,31.10
2021,06,29,14,32,31.00
2021,06,29,14,33,30.90
2021,06,29,14,34,30.90
2021,06,29,14,35,30.90
2021,06,29,14,36,30.80
2021,06,29,14,37,30.90
2021,06,29,14,38,30.90
2021,06,29,14,39,30.90
2021,06,29,14,40,30.90
2021,06,29,14,41,30.90
2021,06,29,14,42,30.90
2021,06,29,14,43,31.00
2021,06,29,14,44,30.90
2021,06,29,14,45,30.90
2021,06,29,14,46,30.90
2021,06,29,14,47,30.90
2021,06,29,14,48,30.90
2021,06,29,14,49,30.90
2021,06,29,14,50,30.90
2021,06,29,14,51,30.90
2021,06,29,14,52,31.00
2021,06,29,14,53,31.00
2021,06,29,14,54,31.10
2021,06,29,14,55,31.10
2021,06,29,14,56,31.10
2021,06,29,14,57,31.10
2021,06,29,14,58,31.10
2021,06,29,14,59,31.10
2021,06,29,15,00,31.10
2021,06,29,15,01,31.20
2021,06,29,15,02,31.20
2021,06,29,15,03,31.20
2021,06,29,15,04,31.30
2021,06,29,15,05,31.30
2021,06,29,15,06,31.30
2021,06,29,15,07,31.30
2021,06,29,15,08,31.40
2021,06,29,15,09,31.40
2021,06,29,15,10,31.50
2021,06,29,15,11,31.50
2021,06,29,15,12,31.60
2021,06,29,15,13,31.60
2021,06,29,15,14,31.70
2021,06,29,15,15,31.80
2021,06,29,15,16,31.80
2021,06,29,15,17,31.70
2021,06,29,15,18,31.60
2021,06,29,15,19,31.60
2021,06,29,15,20,31.50
2021,06,29,15,21,31.50
2021,06,29,15,22,31.50
2021,06,29,15,23,31.50
2021,06,29,15,24,31.40
2021,06,29,15,25,31.40
2021,06,29,15,26,31.30
2021,06,29,15,27,31.30
2021,06,29,15,28,31.30
2021,06,29,15,29,31.40
2021,06,29,15,30,31.40
2021,06,29,15,31,31.50
2021,06,29,15,32,31.60
2021,06,29,15,33,31.70
2021,06,29,15,34,31.70
2021,06,29,15,35,31.80
2021,06,29,15,36,31.80
2021,06,29,15,37,31.90
2021,06,29,15,38,32.00
2021,06,29,15,39,31.90
2021,06,29,15,40,31.90
2021,06,29,15,41,31.80
2021,06,29,15,42,31.80
2021,06,29,15,43,31.80
2021,06,29,15,44,31.80
2021,06,29,15,45,31.80
2021,06,29,15,46,31.60
2021,06,29,15,47,31.60
2021,06,29,15,48,31.60
2021,06,29,15,49,31.50
2021,06,29,15,50,31.40
2021,06,29,15,51,31.40
2021,06,29,15,52,31.30
2021,06,29,15,53,31.30
2021,06,29,15,54,31.30
2021,06,29,15,55,31.30
2021,06,29,15,56,31.30
2021,06,29,15,57,31.30
2021,06,29,15,58,31.30
2021,06,29,15,59,31.30
2021,06,29,16,00,31.20
2021,06,29,16,01,31.20
2021,06,29,16,02,31.10
2021,06,29,16,03,31.10
2021,06,29,16,04,31.20
2021,06,29,16,05,31.20
2021,06,29,16,06,31.20
2021,06,29,16,07,31.10
2021,06,29,16,08,31.10
2021,06,29,16,09,31.10
2021,06,29,16,10,31.10
2021,06,29,16,11,31.00
2021,06,29,16,12,30.90
2021,06,29,16,13,30.90
2021,06,29,16,14,30.80
2021,06,29,16,15,30.80
2021,06,29,16,16,30.80
2021,06,29,16,17,30.90
2021,06,29,16,18,30.90
2021,06,29,16,19,30.80
2021,06,29,16,20,30.80
2021,06,29,16,21,30.70
2021,06,29,16,22,30.70
2021,06,29,16,23,30.60
2021,06,29,16,24,30.60
2021,06,29,16,25,30.70
2021,06,29,16,26,30.70
2021,06,29,16,27,30.70
2021,06,29,16,28,30.70
2021,06,29,16,29,30.70
2021,06,29,16,30,30.80
2021,06,29,16,31,30.90
2021,06,29,16,32,31.00
2021,06,29,16,33,31.00
2021,06,29,16,34,31.00
2021,06,29,16,35,31.10
2021,06,29,16,36,31.20
2021,06,29,16,37,31.20
2021,06,29,16,38,31.20
2021,06,29,16,39,31.30
2021,06,29,16,40,31.40
2021,06,29,16,41,31.40
2021,06,29,16,42,31.50
2021,06,29,16,43,31.40
2021,06,29,16,44,31.30
2021,06,29,16,45,31.30
2021,06,29,16,46,31.30
2021,06,29,16,47,31.20
2021,06,29,16,48,31.20
2021,06,29,16,49,31.20
2021,06,29,16,50,31.20
2021,06,29,16,51,31.00
2021,06,29,16,52,31.00
2021,06,29,16,53,30.90
2021,06,29,16,54,30.90
2021,06,29,16,55,30.80
2021,06,29,16,56,30.60
2021,06,29,16,57,30.50
2021,06,29,16,58,30.40
2021,06,29,16,59,30.40
2021,06,29,17,00,30.30
2021,06,29,17,01,30.30
2021,06,29,17,02,30.30
2021,06,29,17,03,30.10
2021,06,29,17,04,29.90
2021,06,29,17,05,29.80
2021,06,29,17,06,29.60
2021,06,29,17,07,29.60
2021,06,29,17,08,29.50
2021,06,29,17,09,29.60
2021,06,29,17,10,29.70
2021,06,29,17,11,29.70
2021,06,29,17,12,29.70
2021,06,29,17,13,29.70
2021,06,29,17,14,29.70
2021,06,29,17,15,29.80
2021,06,29,17,16,29.80
2021,06,29,17,17,29.80
2021,06,29,17,18,29.80
2021,06,29,17,19,29.80